Temperature
20 20 19 19 19 18 18 18 18 17 17 17 17 16 16 16 16 16 16 16 16 15 15 15 15 15 15 15 15 15 15 15 14 14 14 14 14 14 14 13 14 14 14
19 19 19 19 19 18 18 18 18 17 17 17 17 16 16 16 16 16 16 16 15 15 15 15 15 15 15 15 15 15 15 14 14 14 14 13 13 13 13 13 13 13 13
19 19 19 19 18 18 18 18 17 17 17 17 16 16 16 16 16 16 15 15 15 15 15 15 15 15 15 15 15 15 15 15 14 14 14 14 13 13 13 13 13 13 13
19 19 19 19 18 18 18 18 17 17 17 16 16 16 16 16 16 16 15 15 15 15 15 15 15 15 15 15 15 15 15 15 14 14 14 14 14 13 13 13 13 13 13
19 19 19 18 18 18 18 17 17 17 17 17 16 16 16 16 16 15 15 15 15 15 15 15 15 15 15 15 15 15 15 14 14 14 14 14 14 14 13 13 13 13 13
19 19 18 18 18 18 17 17 17 17 17 16 16 16 16 16 16 15 15 15 15 15 15 15 15 15 15 15 15 15 14 14 14 14 14 14 14 14 14 13 13 13 13
18 18 18 18 18 17 17 17 17 17 16 16 16 16 16 16 16 15 15 15 15 15 15 15 15 15 15 15 15 15 14 14 14 14 14 14 14 14 14 14 13 13 12
18 18 18 18 17 17 17 17 17 16 16 16 16 16 16 16 15 15 15 15 15 15 15 15 15 15 15 15 15 15 14 14 14 14 14 14 14 14 14 14 13 13 12
17 18 18 17 17 17 17 17 16 16 16 16 16 16 15 15 15 15 15 15 15 15 15 15 15 15 15 15 14 14 14 14 14 14 14 14 14 14 14 14 14 13 13
17 17 17 17 17 17 17 16 16 16 16 16 16 16 15 15 15 15 15 15 15 15 15 15 15 15 15 14 14 14 14 14 14 14 14 14 14 13 13 13 13 13 13
17 17 17 17 17 17 16 16 16 16 16 15 15 15 15 15 15 15 15 15 15 15 15 15 15 15 14 14 14 14 14 14 14 14 14 14 13 13 13 13 13 13 13
17 17 17 17 16 16 16 16 16 15 15 15 15 15 15 15 15 15 14 14 14 14 14 14 14 14 14 14 14 14 14 14 14 14 13 13 13 13 13 13 13 13 13
17 16 16 16 16 16 16 16 15 15 15 15 15 14 14 14 14 14 14 14 14 14 14 14 14 14 14 14 14 14 14 14 13 13 13 13 13 13 13 13 13 13 13
16 16 16 16 16 16 15 15 15 15 15 15 15 14 14 14 14 14 14 14 14 14 14 14 14 14 14 14 14 13 13 13 13 13 13 13 13 13 13 13 13 13 13
16 16 16 15 15 15 15 15 15 15 14 14 14 14 14 14 14 14 13 13 13 13 13 14 14 13 13 13 13 13 13 13 13 13 13 13 13 13 13 13 13 13 12
15 16 15 15 15 15 15 15 15 14 14 14 14 14 14 14 13 13 13 13 13 13 13 13 13 13 13 13 13 13 13 13 13 13 13 13 13 13 13 13 12 12 12
15 15 15 15 15 15 15 15 14 14 14 14 14 13 13 13 13 13 13 13 13 13 13 13 13 13 13 13 13 13 13 13 13 13 13 13 12 12 12 12 12 12 12
15 15 15 15 15 14 14 14 14 14 14 13 13 13 13 13 13 12 12 12 12 12 13 13 13 13 13 13 13 13 13 13 13 12 12 12 12 12 12 12 12 12 12
15 15 15 14 14 14 14 14 14 13 13 13 13 13 13 13 12 12 12 12 12 12 12 12 12 12 12 12 12 12 12 12 12 12 12 12 12 12 12 12 12 12 12
15 14 14 14 14 14 14 14 14 13 13 13 13 12 12 12 12 12 12 12 12 12 12 12 12 12 12 12 12 12 12 12 12 12 12 12 12 12 12 12 11 11 11
14 14 14 14 14 14 13 13 13 13 13 13 12 12 12 12 12 12 12 12 12 11 11 11 12 12 12 12 12 12 12 12 12 12 11 11 11 11 11 11 11 11 11
14 14 13 13 13 13 13 13 13 13 12 12 12 12 12 12 12 12 11 11 11 11 11 11 11 11 11 11 11 11 11 11 11 11 11 11 11 11 11 11 11 11 10
13 13 13 13 13 12 12 12 12 12 12 12 11 11 11 11 11 11 11 11 11 11 11 11 11 11 11 11 11 11 11 11 11 11 11 10 10 10 10 10 10 10 10
13 12 12 12 12 12 12 12 12 11 11 11 11 11 11 11 11 11 11 11 11 11 11 11 10 11 11 11 11 11 11 11 10 10 10 10 10 10 10 10 10 9 9
12 12 12 12 12 12 11 11 11 11 11 11 11 11 11 11 10 10 10 10 10 10 10 10 10 10 10 10 10 10 10 10 10 10 10 9 9 9 9 9 9 9 9
12 11 11 11 11 11 11 11 11 10 10 10 10 10 10 10 10 10 10 10 10 10 10 10 10 10 10 10 10 10 10 9 9 9 9 9 9 9 9 9 9 8 8
Wind_Speed
6 6 7 7 6 6 6 6 6 5 5 4 3 3 2 1 1 2 4 6 6 7 6 5 4 4 4 4 4 4 4 3 3 4 4 4 4 4 3 3 3 3 4
5 5 5 5 6 7 6 6 6 5 5 4 3 3 3 1 1 2 3 5 6 6 6 5 4 4 4 4 4 4 3 1 1 3 3 2 4 4 3 2 2 2 3
9 7 6 6 6 6 7 7 6 6 5 4 3 3 3 3 2 2 1 1 4 5 6 6 5 4 4 4 4 4 4 2 0 1 3 3 2 1 3 2 2 2 2
8 7 7 6 6 6 6 7 6 6 5 5 6 6 4 3 2 2 1 0 2 4 5 6 5 4 3 4 4 3 3 3 2 0 1 2 4 3 0 2 2 2 1
8 9 8 8 6 6 6 6 6 5 5 6 6 6 4 2 1 1 2 1 0 2 4 5 5 4 3 4 3 3 3 2 2 2 1 2 2 2 3 1 1 2 2
5 7 7 6 5 6 6 6 6 4 4 6 6 6 5 4 4 3 2 1 1 1 2 4 4 4 3 3 3 3 3 2 2 2 2 2 2 2 3 2 1 0 2
4 6 7 7 6 6 6 6 7 5 5 6 5 5 5 6 5 4 3 2 1 1 1 2 3 3 3 3 3 3 3 3 3 3 2 2 2 3 3 4 2 1 1
3 5 7 7 8 7 7 7 7 6 5 5 5 4 4 4 3 3 3 3 2 2 2 2 3 3 3 3 3 2 2 2 3 3 2 2 1 3 4 4 4 2 1
4 4 5 7 7 7 6 7 7 6 5 5 5 4 4 3 3 3 2 2 2 2 2 2 2 2 2 3 3 2 2 2 2 2 2 2 1 2 2 3 4 4 2
3 3 3 5 6 6 5 5 6 6 5 5 4 4 3 3 3 3 2 2 1 1 2 2 2 2 2 2 2 2 2 3 2 2 3 2 1 2 2 3 3 3 4
4 3 4 4 5 5 5 5 5 5 5 5 4 4 3 3 3 3 2 2 2 2 3 3 3 3 2 2 3 2 2 2 2 2 3 2 2 2 2 2 2 3 3
4 3 3 4 4 5 5 5 5 5 5 5 5 4 3 3 2 2 2 2 2 2 3 3 3 2 2 2 3 2 2 3 2 2 2 2 2 2 2 2 2 2 2
2 2 2 3 4 4 5 5 5 5 5 5 5 4 3 3 2 2 2 2 3 3 2 3 3 2 2 2 2 3 2 2 2 2 3 3 3 2 2 2 2 2 2
4 3 3 3 4 4 5 5 4 4 4 4 5 5 4 4 3 3 2 3 3 3 3 3 2 2 2 2 2 2 2 2 2 2 2 3 4 4 3 3 3 3 3
3 4 3 3 3 3 4 4 4 4 4 4 4 5 5 4 3 3 2 2 2 3 3 3 2 1 2 2 2 3 3 2 2 1 1 2 3 4 4 3 4 4 3
3 3 2 2 2 3 4 4 4 4 4 5 5 4 4 4 3 3 3 3 2 2 2 3 3 2 2 2 4 3 3 3 3 2 1 1 1 3 4 4 6 7 6
2 2 3 3 3 4 4 4 5 5 5 5 4 4 4 4 4 4 3 3 3 3 3 3 3 3 2 2 3 4 3 3 3 2 2 1 1 2 2 3 4 4 5
2 2 3 3 3 3 3 3 4 4 5 5 5 5 4 5 4 4 4 3 3 3 3 3 3 3 3 3 3 4 3 2 2 2 2 2 1 2 3 3 2 2 3
3 4 4 3 3 3 3 3 3 3 4 4 5 5 5 5 5 5 5 3 3 3 3 3 3 3 3 4 4 4 2 2 2 2 2 2 2 3 4 4 3 2 2
1 2 2 2 2 2 3 3 3 4 4 4 4 5 5 6 6 6 5 3 4 4 3 3 4 4 4 4 5 5 3 2 2 1 1 2 2 3 4 4 5 4 4
2 2 2 2 3 2 3 3 3 4 5 4 3 4 4 5 5 5 4 3 3 3 3 3 3 3 4 5 6 5 4 4 3 2 2 2 2 3 4 4 5 6 4
1 1 1 1 1 2 3 3 4 4 3 3 3 4 4 4 4 4 3 3 4 3 3 2 2 3 3 4 5 6 6 5 4 4 3 3 3 3 4 3 4 4 4
1 1 2 1 1 2 3 4 4 2 2 3 3 3 3 3 3 4 4 3 3 3 3 3 3 3 3 4 5 6 6 6 4 4 5 4 4 3 3 3 3 3 3
1 0 1 1 2 2 3 4 3 3 2 2 3 3 3 2 2 2 3 3 4 4 4 4 4 3 3 4 3 3 4 4 4 3 3 3 2 2 2 2 2 2 3
1 1 1 2 3 3 2 2 2 3 3 3 3 3 3 3 3 3 3 4 5 6 6 5 5 5 5 7 7 5 5 5 4 3 2 1 1 1 1 1 2 2 2
1 1 2 2 3 2 3 3 3 4 4 3 3 3 3 3 3 3 2 2 3 5 6 6 5 5 6 6 7 8 7 7 6 4 2 2 3 4 4 3 3 3 3
Wind_Direction
189 174 169 161 154 152 147 146 142 145 138 131 129 124 124 109 89 118 123 124 129 127 122 126 118 115 116 121 116 108 93 86 97 88 61 34 38 58 61 71 80 81 84
165 170 165 158 158 157 154 147 148 151 157 157 155 151 142 132 130 118 111 127 133 137 136 136 133 129 121 116 118 117 111 123 119 115 100 49 16 14 35 50 74 76 86
174 173 158 157 159 158 160 158 155 154 156 146 120 102 77 57 58 75 88 125 140 143 141 145 144 145 139 144 146 142 137 153 195 124 134 138 180 318 358 18 44 55 73
174 170 164 164 166 170 165 158 157 154 146 136 137 141 143 151 182 177 164 112 133 142 141 144 147 149 148 156 167 156 150 146 154 126 102 148 153 150 110 353 3 22 57
176 175 174 175 170 161 155 154 152 145 141 138 144 144 144 161 151 119 102 81 77 133 141 144 144 148 156 164 161 151 151 152 159 163 135 101 96 119 146 174 333 3 353
176 174 174 166 157 149 145 144 142 134 136 137 141 145 151 151 133 123 122 110 73 74 122 139 141 147 152 165 171 168 163 165 158 161 162 157 149 157 147 165 184 243 315
160 161 160 160 159 153 150 147 144 140 139 138 144 150 152 151 153 159 164 154 132 125 204 139 143 149 162 169 161 159 177 175 161 167 177 177 171 156 148 146 161 167 310
145 162 167 166 164 162 159 151 150 150 146 144 151 147 147 144 151 163 160 164 179 190 179 141 143 157 161 158 148 147 176 170 170 170 162 157 167 152 153 154 149 134 8
152 158 165 162 160 161 163 161 156 151 152 151 148 142 142 141 156 165 154 163 178 174 151 142 140 146 146 146 140 143 159 151 156 157 149 143 147 143 149 146 150 149 158
156 154 161 162 164 167 158 155 157 162 160 153 154 149 155 154 149 147 157 173 189 151 138 133 135 128 125 127 131 134 146 135 140 146 133 126 137 127 128 140 137 136 150
170 176 173 168 155 144 154 158 156 155 156 156 152 146 156 150 140 142 165 171 155 138 142 147 141 138 132 121 122 128 129 133 136 140 142 152 139 130 136 129 122 127 133
181 179 171 154 151 154 164 161 159 161 166 165 156 154 154 146 142 155 171 161 154 143 141 146 146 149 143 133 132 142 131 129 140 153 147 168 160 143 146 140 141 144 147
163 154 155 164 171 172 168 161 162 169 168 163 160 155 162 161 162 176 176 153 151 150 137 135 150 162 157 153 158 153 155 152 155 160 162 176 157 164 161 159 159 151 141
176 167 178 192 192 181 172 162 166 167 160 156 163 169 179 183 185 184 175 167 155 154 158 166 167 173 168 158 161 160 158 158 160 165 167 169 167 178 175 168 166 151 135
181 177 191 202 192 176 176 171 177 173 161 158 172 187 188 182 175 174 175 169 158 162 166 154 154 161 163 168 165 172 175 170 165 175 199 185 171 171 175 169 169 156 145
200 187 194 211 203 188 189 184 184 181 165 167 186 188 176 172 176 178 166 158 163 171 158 161 169 176 186 164 169 166 180 185 178 187 229 229 193 191 177 169 164 164 165
197 189 203 212 213 209 195 190 191 178 168 178 185 183 179 174 174 174 165 174 181 173 173 180 175 192 208 171 169 173 172 181 190 193 205 223 219 194 194 183 175 179 180
192 199 211 226 228 212 195 187 179 176 178 188 196 190 181 184 177 167 174 182 180 178 190 200 193 195 216 189 175 169 166 173 198 203 197 200 246 205 182 171 171 199 213
195 205 207 209 209 202 195 170 172 181 184 196 200 194 185 184 181 183 190 192 184 193 203 203 195 197 227 210 186 166 163 173 213 222 210 195 209 208 173 160 174 203 251
199 202 214 190 191 206 179 162 185 186 196 205 208 199 188 187 193 197 198 198 189 201 204 215 213 207 219 213 192 175 168 182 221 252 247 220 206 195 172 172 180 198 228
232 208 188 190 210 197 162 168 194 212 217 207 201 194 193 197 199 198 195 191 191 191 207 226 236 224 222 215 202 192 185 191 202 221 248 252 207 190 188 184 192 206 196
271 226 181 210 218 184 166 181 218 229 212 194 194 194 198 203 201 190 196 195 189 193 204 226 254 253 240 227 212 205 202 191 192 215 225 231 211 205 200 197 199 183 159
270 226 173 203 242 202 179 200 234 225 183 177 191 201 202 204 196 191 193 196 194 196 208 210 233 255 251 242 228 213 206 200 201 217 218 214 205 201 205 206 190 169 163
275 190 128 179 255 250 218 214 226 208 182 186 201 195 192 205 208 205 198 196 201 202 211 218 226 242 245 237 229 218 208 197 203 215 208 196 190 194 200 208 208 192 184
260 187 186 215 245 254 250 236 210 186 189 205 214 206 200 201 208 215 213 210 214 207 208 217 215 216 234 236 218 205 210 206 204 175 137 127 172 209 222 226 230 217 199
241 222 226 233 253 254 248 247 216 186 185 210 221 213 205 207 206 211 259 272 237 236 233 227 222 228 229 233 220 209 206 197 178 153 170 201 214 219 221 222 226 223 219
Height
1522 1523 1524 1526 1527 1528 1529 1529 1530 1531 1532 1532 1533 1534 1534 1535 1535 1535 1536 1536 1536 1536 1536 1537 1537 1537 1538 1538 1538 1538 1538 1538 1539 1539 1539 1539 1539 1539 1539 1539 1538 1538 1537
1520 1522 1523 1524 1525 1526 1527 1528 1529 1530 1531 1532 1532 1533 1534 1535 1535 1536 1536 1536 1536 1537 1537 1537 1537 1538 1538 1538 1538 1539 1539 1539 1539 1539 1539 1540 1541 1540 1540 1540 1539 1538 1538
1517 1519 1521 1522 1524 1525 1526 1527 1528 1529 1530 1531 1532 1533 1534 1535 1535 1536 1536 1536 1537 1537 1537 1538 1538 1538 1538 1538 1539 1539 1539 1539 1539 1539 1540 1540 1540 1540 1541 1540 1540 1539 1538
1516 1517 1519 1520 1521 1523 1524 1525 1526 1528 1529 1530 1531 1532 1532 1533 1534 1535 1536 1536 1537 1537 1537 1538 1538 1538 1538 1538 1539 1539 1539 1539 1539 1539 1539 1540 1539 1539 1540 1541 1540 1540 1539
1514 1515 1516 1518 1519 1521 1522 1524 1525 1526 1528 1529 1530 1531 1532 1533 1534 1535 1535 1536 1536 1537 1537 1537 1537 1538 1538 1538 1538 1538 1539 1539 1539 1539 1538 1538 1538 1538 1538 1539 1540 1540 1540
1513 1514 1515 1517 1518 1519 1521 1522 1524 1525 1526 1528 1529 1530 1531 1532 1533 1534 1534 1535 1535 1536 1536 1537 1537 1537 1537 1538 1538 1538 1538 1538 1538 1538 1538 1538 1537 1537 1537 1538 1538 1539 1540
1511 1512 1513 1514 1516 1518 1519 1521 1522 1523 1525 1527 1528 1529 1530 1531 1532 1532 1533 1534 1534 1535 1535 1536 1536 1536 1537 1537 1537 1537 1537 1537 1537 1537 1537 1537 1537 1537 1537 1537 1537 1538 1539
1510 1511 1512 1513 1514 1516 1518 1519 1521 1522 1524 1525 1526 1528 1529 1530 1530 1531 1532 1533 1533 1534 1535 1535 1535 1535 1536 1536 1536 1536 1535 1536 1536 1536 1536 1536 1536 1537 1537 1537 1537 1537 1538
1509 1510 1511 1512 1513 1515 1516 1518 1519 1521 1522 1524 1525 1526 1527 1528 1529 1530 1531 1531 1532 1533 1533 1534 1534 1534 1534 1534 1534 1534 1534 1534 1535 1535 1535 1535 1535 1536 1536 1536 1536 1536 1536
1509 1509 1510 1511 1512 1514 1515 1517 1518 1520 1521 1523 1524 1525 1526 1527 1528 1529 1530 1530 1531 1531 1531 1532 1532 1532 1532 1533 1533 1533 1533 1533 1533 1534 1534 1534 1534 1534 1535 1535 1535 1535 1536
1508 1509 1509 1510 1511 1513 1514 1516 1517 1518 1520 1521 1522 1523 1524 1526 1526 1527 1528 1528 1529 1529 1530 1530 1530 1531 1531 1531 1531 1531 1532 1532 1532 1532 1533 1533 1533 1534 1534 1534 1534 1535 1535
1508 1508 1508 1510 1511 1511 1513 1514 1515 1516 1518 1519 1520 1521 1523 1524 1524 1525 1526 1526 1527 1528 1528 1529 1529 1529 1529 1529 1530 1530 1530 1530 1531 1531 1531 1531 1532 1532 1533 1533 1533 1533 1534
1507 1507 1508 1508 1509 1510 1511 1512 1513 1514 1516 1517 1518 1519 1520 1522 1522 1523 1524 1524 1525 1526 1526 1527 1527 1527 1527 1528 1528 1528 1528 1529 1529 1529 1530 1530 1530 1531 1531 1532 1532 1532 1533
1506 1506 1506 1507 1507 1508 1509 1510 1511 1512 1513 1515 1516 1516 1518 1519 1520 1521 1522 1522 1523 1524 1524 1525 1525 1525 1526 1526 1526 1527 1527 1527 1527 1528 1528 1528 1528 1529 1529 1530 1530 1531 1531
1505 1504 1504 1505 1505 1506 1507 1508 1509 1510 1511 1512 1513 1514 1516 1517 1518 1518 1519 1520 1521 1521 1522 1523 1523 1524 1524 1524 1524 1525 1525 1525 1526 1526 1526 1527 1527 1527 1528 1528 1528 1529 1529
1503 1503 1503 1503 1503 1504 1504 1505 1506 1507 1508 1509 1510 1512 1513 1514 1515 1516 1517 1517 1518 1519 1519 1520 1521 1521 1522 1522 1522 1523 1523 1523 1524 1524 1524 1525 1525 1526 1526 1526 1526 1527 1527
1501 1502 1502 1502 1502 1502 1502 1502 1503 1504 1505 1506 1507 1509 1510 1511 1512 1513 1514 1515 1515 1516 1517 1517 1518 1518 1519 1520 1520 1520 1521 1521 1521 1522 1522 1523 1523 1523 1524 1524 1524 1524 1525
1500 1500 1501 1500 1500 1500 1500 1500 1501 1502 1502 1503 1504 1506 1507 1508 1510 1510 1511 1512 1513 1513 1514 1515 1515 1516 1516 1517 1517 1518 1518 1519 1519 1519 1520 1520 1520 1521 1521 1521 1521 1522 1522
1498 1498 1498 1498 1498 1498 1498 1498 1499 1499 1500 1500 1501 1502 1504 1505 1506 1507 1508 1509 1510 1510 1511 1512 1512 1513 1513 1514 1515 1515 1516 1516 1516 1517 1517 1517 1517 1518 1518 1519 1519 1519 1519
1496 1496 1496 1496 1496 1496 1496 1496 1496 1496 1496 1497 1498 1500 1501 1502 1504 1505 1505 1506 1507 1507 1508 1509 1510 1510 1510 1511 1512 1512 1513 1513 1513 1513 1514 1514 1514 1515 1515 1515 1515 1516 1516
1495 1494 1494 1493 1493 1493 1493 1493 1493 1493 1494 1495 1496 1497 1498 1499 1501 1502 1503 1503 1504 1504 1505 1505 1506 1507 1507 1508 1508 1509 1509 1509 1509 1510 1510 1510 1511 1511 1512 1512 1512 1512 1513
1491 1491 1491 1491 1491 1491 1491 1490 1490 1491 1492 1492 1493 1494 1495 1497 1497 1498 1499 1500 1500 1501 1501 1501 1502 1503 1503 1504 1504 1505 1505 1506 1506 1506 1506 1507 1507 1508 1508 1508 1509 1509 1509
1489 1488 1488 1488 1489 1488 1488 1488 1488 1489 1489 1489 1490 1491 1492 1493 1494 1494 1495 1496 1496 1497 1497 1497 1497 1498 1499 1500 1500 1501 1501 1502 1502 1502 1503 1503 1503 1504 1504 1505 1505 1505 1505
1486 1486 1486 1486 1486 1486 1486 1486 1486 1486 1486 1486 1487 1487 1488 1489 1489 1490 1491 1492 1492 1492 1493 1493 1494 1494 1495 1495 1496 1496 1497 1497 1498 1498 1498 1499 1499 1500 1500 1500 1501 1501 1501
1484 1484 1484 1483 1483 1483 1483 1483 1483 1483 1483 1483 1484 1484 1484 1485 1485 1486 1487 1487 1488 1489 1489 1489 1490 1490 1489 1490 1491 1491 1492 1493 1493 1493 1494 1494 1495 1495 1496 1496 1496 1496 1497
1482 1481 1481 1481 1481 1480 1480 1480 1480 1479 1479 1479 1480 1480 1481 1481 1481 1481 1482 1483 1484 1485 1485 1486 1486 1486 1486 1486 1486 1487 1488 1488 1489 1489 1489 1489 1490 1491 1491 1491 1491 1492 1492